DIMMC EDDH-EDDN

Flight info

Callsign DIMMC
Flight time 1h 37m
Altitude 7000
Route AMLUH2G AMLUH M852 POVEL Z94 GALMA M736 TABAT Q244 PIVIR PIVIR1V
Aircraft DA62/L-SDFGRY/C

Departure

Time 2026-04-26 15:39
Airport Hamburg Helmut Schmidt Airport (EDDH)

Arrival

Time 2026-04-26 17:16
Airport Nuremberg Airport (EDDN)
Time Latitude Longitude Altitude Speed Heading
2026-04-26 15:32 53.62700 9.98734 38 ft 0 kts 60°
2026-04-26 15:36 53.62702 9.98739 38 ft 3 kts 42°
2026-04-26 15:36 53.62744 9.98709 37 ft 9 kts 339°
2026-04-26 15:37 53.62792 9.98763 38 ft 10 kts 51°
2026-04-26 15:37 53.62838 9.98853 38 ft 11 kts 45°
2026-04-26 15:37 53.62889 9.98953 38 ft 12 kts 50°
2026-04-26 15:37 53.62944 9.99064 38 ft 13 kts 50°
2026-04-26 15:38 53.63018 9.99211 39 ft 21 kts 49°
2026-04-26 15:38 53.63113 9.99297 39 ft 27 kts 17°
2026-04-26 15:38 53.63313 9.99349 41 ft 32 kts 345°
2026-04-26 15:38 53.63687 9.99037 38 ft 86 kts 333°
2026-04-26 15:39 53.64287 9.98536 228 ft 101 kts 332°
2026-04-26 15:39 53.64902 9.98010 601 ft 95 kts 330°
2026-04-26 15:39 53.65519 9.97473 858 ft 105 kts 330°
2026-04-26 15:39 53.65976 9.97061 992 ft 119 kts 332°
2026-04-26 15:40 53.67050 9.96158 1281 ft 137 kts 331°
2026-04-26 15:40 53.67910 9.95416 1488 ft 145 kts 331°
2026-04-26 15:40 53.68856 9.94734 1714 ft 152 kts 345°
2026-04-26 15:40 53.69916 9.94686 1965 ft 151 kts 358°
2026-04-26 15:41 53.70966 9.94691 2234 ft 151 kts 358°
2026-04-26 15:41 53.72016 9.94915 2481 ft 157 kts 22°
2026-04-26 15:41 53.72769 9.96242 2740 ft 162 kts 63°
2026-04-26 15:41 53.73170 9.98027 3001 ft 163 kts 69°
2026-04-26 15:42 53.73561 9.99860 3257 ft 166 kts 69°
2026-04-26 15:42 53.73956 10.01693 3517 ft 165 kts 71°
2026-04-26 15:42 53.74030 10.03621 3771 ft 166 kts 99°
2026-04-26 15:42 53.73602 10.05424 4029 ft 166 kts 121°
2026-04-26 15:43 53.73032 10.07104 4281 ft 167 kts 121°
2026-04-26 15:43 53.72461 10.08806 4545 ft 166 kts 120°
2026-04-26 15:43 53.71320 10.12239 5075 ft 168 kts 120°
2026-04-26 15:44 53.70741 10.13967 5283 ft 172 kts 120°
2026-04-26 15:44 53.69499 10.17681 5288 ft 189 kts 120°
2026-04-26 15:44 53.68775 10.19546 5401 ft 187 kts 134°
2026-04-26 15:45 53.66592 10.21399 5906 ft 173 kts 167°
2026-04-26 15:45 53.65436 10.21931 6171 ft 171 kts 167°
2026-04-26 15:46 53.63161 10.22982 6692 ft 168 kts 167°
2026-04-26 15:46 53.62034 10.23498 6939 ft 168 kts 167°
2026-04-26 15:46 53.60902 10.24019 7186 ft 169 kts 167°
2026-04-26 15:46 53.60140 10.24367 7283 ft 175 kts 167°
2026-04-26 15:47 53.58505 10.25114 7285 ft 190 kts 167°
2026-04-26 15:47 53.55884 10.26319 7286 ft 199 kts 167°
2026-04-26 15:47 53.54541 10.26934 7283 ft 200 kts 167°
2026-04-26 15:48 53.53185 10.27555 7282 ft 203 kts 167°
2026-04-26 15:48 53.51820 10.28180 7280 ft 203 kts 167°
2026-04-26 15:48 53.50459 10.28802 7279 ft 202 kts 167°
2026-04-26 15:48 53.49096 10.29425 7279 ft 203 kts 167°
2026-04-26 15:49 53.47734 10.30045 7281 ft 203 kts 167°
2026-04-26 15:49 53.46385 10.30662 7281 ft 203 kts 167°
2026-04-26 15:49 53.45021 10.31284 7275 ft 203 kts 167°
2026-04-26 15:49 53.43660 10.31903 7279 ft 203 kts 167°
2026-04-26 15:50 53.42292 10.32525 7275 ft 203 kts 167°
2026-04-26 15:50 53.40924 10.33141 7279 ft 203 kts 167°
2026-04-26 15:50 53.39558 10.33756 7286 ft 203 kts 167°
2026-04-26 15:50 53.38186 10.34372 7283 ft 204 kts 167°
2026-04-26 15:51 53.36813 10.34991 7282 ft 204 kts 167°
2026-04-26 15:51 53.35442 10.35608 7281 ft 202 kts 167°
2026-04-26 15:51 53.34131 10.36199 7278 ft 189 kts 167°
2026-04-26 15:51 53.32875 10.36763 7274 ft 184 kts 168°
2026-04-26 15:52 53.31645 10.37313 7278 ft 182 kts 168°
2026-04-26 15:52 53.30442 10.37853 7277 ft 180 kts 168°
2026-04-26 15:52 53.29236 10.38393 7277 ft 179 kts 168°
2026-04-26 15:52 53.28425 10.38755 7277 ft 178 kts 167°
2026-04-26 15:53 53.26846 10.39463 7275 ft 176 kts 167°
2026-04-26 15:53 53.25662 10.39992 7274 ft 175 kts 167°
2026-04-26 15:53 53.24485 10.40519 7275 ft 175 kts 167°
2026-04-26 15:53 53.23304 10.41047 7275 ft 176 kts 167°
2026-04-26 15:54 53.22119 10.41576 7277 ft 176 kts 167°
2026-04-26 15:54 53.20939 10.42103 7277 ft 176 kts 167°
2026-04-26 15:54 53.19755 10.42629 7277 ft 176 kts 167°
2026-04-26 15:54 53.18589 10.43151 7278 ft 175 kts 167°
2026-04-26 15:55 53.17409 10.43678 7277 ft 175 kts 167°
2026-04-26 15:55 53.16229 10.44202 7277 ft 175 kts 167°
2026-04-26 15:55 53.15048 10.44728 7276 ft 175 kts 167°
2026-04-26 15:55 53.13874 10.45250 7279 ft 174 kts 167°
2026-04-26 15:56 53.12700 10.45773 7280 ft 175 kts 167°
2026-04-26 15:56 53.11521 10.46297 7280 ft 175 kts 167°
2026-04-26 15:56 53.10342 10.46821 7280 ft 175 kts 167°
2026-04-26 15:56 53.09178 10.47338 7279 ft 175 kts 167°
2026-04-26 15:57 53.07998 10.47862 7281 ft 176 kts 167°
2026-04-26 15:57 53.06816 10.48387 7280 ft 176 kts 167°
2026-04-26 15:57 53.05632 10.48911 7281 ft 176 kts 167°
2026-04-26 15:57 53.04834 10.49265 7281 ft 176 kts 167°
2026-04-26 15:58 53.03267 10.49960 7280 ft 176 kts 167°
2026-04-26 15:58 53.02088 10.50482 7278 ft 175 kts 167°
2026-04-26 15:58 53.00910 10.51003 7280 ft 175 kts 167°
2026-04-26 15:58 52.99731 10.51525 7280 ft 175 kts 167°
2026-04-26 15:59 52.98550 10.52048 7279 ft 175 kts 167°
2026-04-26 15:59 52.97375 10.52566 7279 ft 175 kts 167°
2026-04-26 15:59 52.96194 10.53087 7280 ft 175 kts 167°
2026-04-26 15:59 52.95017 10.53607 7280 ft 175 kts 167°
2026-04-26 16:00 52.93877 10.54317 7279 ft 178 kts 145°
2026-04-26 16:00 52.92966 10.55664 7281 ft 178 kts 141°
2026-04-26 16:00 52.91917 10.56720 7277 ft 177 kts 160°
2026-04-26 16:00 52.90745 10.57315 7279 ft 176 kts 167°
2026-04-26 16:01 52.89562 10.57836 7280 ft 176 kts 167°
2026-04-26 16:01 52.88384 10.58379 7280 ft 176 kts 166°
2026-04-26 16:01 52.87208 10.58937 7283 ft 176 kts 166°
2026-04-26 16:01 52.86030 10.59494 7283 ft 176 kts 166°
2026-04-26 16:02 52.84850 10.60053 7282 ft 176 kts 166°
2026-04-26 16:02 52.83673 10.60608 7282 ft 175 kts 166°
2026-04-26 16:02 52.82499 10.61162 7283 ft 175 kts 166°
2026-04-26 16:02 52.81720 10.61529 7283 ft 176 kts 166°
2026-04-26 16:03 52.80157 10.62266 7282 ft 176 kts 166°
2026-04-26 16:03 52.78981 10.62819 7288 ft 176 kts 166°
2026-04-26 16:03 52.77799 10.63377 7288 ft 176 kts 166°
2026-04-26 16:03 52.76613 10.63934 7281 ft 177 kts 166°
2026-04-26 16:04 52.75431 10.64490 7282 ft 177 kts 166°
2026-04-26 16:04 52.74245 10.65048 7281 ft 177 kts 166°
2026-04-26 16:04 52.73062 10.65604 7282 ft 177 kts 166°
2026-04-26 16:04 52.71877 10.66161 7281 ft 177 kts 166°
2026-04-26 16:05 52.70707 10.66709 7278 ft 177 kts 166°
2026-04-26 16:05 52.69522 10.67265 7279 ft 177 kts 166°
2026-04-26 16:05 52.68334 10.67821 7279 ft 177 kts 166°
2026-04-26 16:05 52.67144 10.68379 7282 ft 177 kts 166°
2026-04-26 16:06 52.65957 10.68935 7281 ft 177 kts 166°
2026-04-26 16:06 52.64769 10.69491 7281 ft 177 kts 166°
2026-04-26 16:06 52.63581 10.70046 7281 ft 177 kts 166°
2026-04-26 16:06 52.62394 10.70601 7282 ft 177 kts 166°
2026-04-26 16:07 52.61209 10.71154 7283 ft 177 kts 166°
2026-04-26 16:07 52.60035 10.71702 7283 ft 177 kts 166°
2026-04-26 16:07 52.58847 10.72256 7283 ft 177 kts 166°
2026-04-26 16:07 52.57658 10.72811 7283 ft 177 kts 166°
2026-04-26 16:08 52.56473 10.73363 7283 ft 177 kts 166°
2026-04-26 16:08 52.55687 10.73730 7283 ft 177 kts 166°
2026-04-26 16:08 52.54103 10.74467 7283 ft 177 kts 166°
2026-04-26 16:08 52.52920 10.75018 7284 ft 177 kts 166°
2026-04-26 16:09 52.51737 10.75568 7279 ft 177 kts 166°
2026-04-26 16:09 52.50554 10.76118 7288 ft 176 kts 166°
2026-04-26 16:09 52.49377 10.76664 7283 ft 176 kts 166°
2026-04-26 16:09 52.48200 10.77211 7284 ft 175 kts 166°
2026-04-26 16:10 52.47027 10.77755 7282 ft 175 kts 166°
2026-04-26 16:10 52.45852 10.78300 7281 ft 175 kts 166°
2026-04-26 16:10 52.44691 10.78838 7281 ft 175 kts 166°
2026-04-26 16:10 52.43517 10.79381 7285 ft 175 kts 166°
2026-04-26 16:11 52.42341 10.79926 7285 ft 176 kts 166°
2026-04-26 16:11 52.41164 10.80470 7284 ft 176 kts 166°
2026-04-26 16:11 52.39989 10.81014 7285 ft 175 kts 166°
2026-04-26 16:11 52.38812 10.81559 7285 ft 176 kts 166°
2026-04-26 16:12 52.37636 10.82101 7284 ft 176 kts 166°
2026-04-26 16:12 52.36458 10.82645 7284 ft 175 kts 166°
2026-04-26 16:12 52.34123 10.83722 7284 ft 175 kts 166°
2026-04-26 16:13 52.32949 10.84263 7284 ft 175 kts 166°
2026-04-26 16:13 52.31774 10.84805 7285 ft 175 kts 166°
2026-04-26 16:13 52.30596 10.85347 7285 ft 175 kts 166°
2026-04-26 16:13 52.29422 10.85887 7284 ft 175 kts 166°
2026-04-26 16:14 52.28260 10.86421 7284 ft 176 kts 166°
2026-04-26 16:14 52.27081 10.86963 7286 ft 176 kts 166°
2026-04-26 16:14 52.24729 10.88043 7283 ft 175 kts 166°
2026-04-26 16:15 52.23556 10.88582 7284 ft 175 kts 166°
2026-04-26 16:15 52.22384 10.89119 7283 ft 175 kts 166°
2026-04-26 16:15 52.21210 10.89657 7282 ft 175 kts 166°
2026-04-26 16:16 52.18864 10.90732 7291 ft 175 kts 166°
2026-04-26 16:16 52.17685 10.91271 7291 ft 176 kts 166°
2026-04-26 16:16 52.16505 10.91810 7290 ft 176 kts 166°
2026-04-26 16:16 52.15342 10.92342 7290 ft 176 kts 166°
2026-04-26 16:17 52.14163 10.92881 7287 ft 175 kts 166°
2026-04-26 16:17 52.12988 10.93417 7288 ft 175 kts 166°
2026-04-26 16:17 52.11811 10.93955 7287 ft 175 kts 167°
2026-04-26 16:17 52.10633 10.94492 7287 ft 175 kts 167°
2026-04-26 16:18 52.09457 10.95029 7287 ft 176 kts 167°
2026-04-26 16:18 52.07112 10.96097 7287 ft 176 kts 166°
2026-04-26 16:19 52.04736 10.97177 7290 ft 178 kts 166°
2026-04-26 16:19 52.03544 10.97719 7290 ft 177 kts 166°
2026-04-26 16:19 52.01567 10.98617 7290 ft 177 kts 167°
2026-04-26 16:20 51.99975 10.99340 7283 ft 178 kts 166°
2026-04-26 16:20 51.97991 11.00240 7283 ft 178 kts 167°
2026-04-26 16:20 51.96801 11.00779 7287 ft 178 kts 167°
2026-04-26 16:21 51.95218 11.01496 7282 ft 178 kts 167°
2026-04-26 16:21 51.94030 11.02034 7283 ft 177 kts 167°
2026-04-26 16:21 51.93226 11.02398 7283 ft 177 kts 167°
2026-04-26 16:21 51.92037 11.02935 7283 ft 177 kts 167°
2026-04-26 16:22 51.90847 11.03473 7283 ft 178 kts 167°
2026-04-26 16:22 51.89671 11.04004 7282 ft 177 kts 167°
2026-04-26 16:22 51.88484 11.04540 7282 ft 177 kts 167°
2026-04-26 16:22 51.87296 11.05076 7283 ft 177 kts 167°
2026-04-26 16:23 51.86146 11.05799 7281 ft 179 kts 153°
2026-04-26 16:23 51.85052 11.06759 7279 ft 179 kts 153°
2026-04-26 16:23 51.83948 11.07708 7279 ft 179 kts 154°
2026-04-26 16:23 51.82846 11.08650 7279 ft 180 kts 154°
2026-04-26 16:24 51.81740 11.09596 7279 ft 179 kts 154°
2026-04-26 16:24 51.80636 11.10540 7279 ft 179 kts 154°
2026-04-26 16:24 51.79532 11.11484 7280 ft 180 kts 154°
2026-04-26 16:24 51.78425 11.12430 7279 ft 180 kts 154°
2026-04-26 16:25 51.77333 11.13362 7284 ft 179 kts 154°
2026-04-26 16:25 51.76228 11.14306 7285 ft 180 kts 154°
2026-04-26 16:25 51.75121 11.15250 7280 ft 179 kts 153°
2026-04-26 16:25 51.74021 11.16188 7281 ft 179 kts 153°
2026-04-26 16:26 51.72922 11.17124 7280 ft 179 kts 153°
2026-04-26 16:26 51.71823 11.18059 7282 ft 178 kts 153°
2026-04-26 16:26 51.70722 11.18997 7280 ft 179 kts 153°
2026-04-26 16:26 51.69622 11.19933 7285 ft 179 kts 153°
2026-04-26 16:27 51.68516 11.20872 7285 ft 180 kts 153°
2026-04-26 16:27 51.67407 11.21815 7283 ft 180 kts 153°
2026-04-26 16:27 51.66297 11.22758 7286 ft 181 kts 152°
2026-04-26 16:27 51.65184 11.23703 7286 ft 181 kts 152°
2026-04-26 16:28 51.64068 11.24649 7285 ft 182 kts 152°
2026-04-26 16:28 51.62961 11.25587 7287 ft 182 kts 152°
2026-04-26 16:28 51.61835 11.26541 7289 ft 182 kts 152°
2026-04-26 16:28 51.60713 11.27493 7287 ft 182 kts 152°
2026-04-26 16:29 51.59590 11.28443 7289 ft 182 kts 153°
2026-04-26 16:29 51.58465 11.29395 7287 ft 182 kts 153°
2026-04-26 16:29 51.57342 11.30345 7288 ft 182 kts 153°
2026-04-26 16:29 51.56217 11.31296 7287 ft 182 kts 153°
2026-04-26 16:30 51.55110 11.32231 7286 ft 182 kts 153°
2026-04-26 16:30 51.53989 11.33178 7286 ft 181 kts 153°
2026-04-26 16:30 51.52872 11.34121 7286 ft 181 kts 153°
2026-04-26 16:30 51.51755 11.35063 7287 ft 182 kts 153°
2026-04-26 16:31 51.50632 11.36011 7286 ft 182 kts 153°
2026-04-26 16:31 51.49512 11.36955 7285 ft 182 kts 153°
2026-04-26 16:31 51.48395 11.37894 7280 ft 180 kts 153°
2026-04-26 16:31 51.47285 11.38828 7279 ft 179 kts 153°
2026-04-26 16:32 51.46184 11.39755 7281 ft 178 kts 153°
2026-04-26 16:32 51.45459 11.40365 7282 ft 177 kts 153°
2026-04-26 16:32 51.44008 11.41583 7281 ft 178 kts 153°
2026-04-26 16:32 51.42912 11.42503 7282 ft 178 kts 153°
2026-04-26 16:33 51.41814 11.43425 7279 ft 178 kts 153°
2026-04-26 16:33 51.40716 11.44347 7279 ft 178 kts 153°
2026-04-26 16:33 51.39578 11.45107 7280 ft 177 kts 170°
2026-04-26 16:33 51.38352 11.45255 7279 ft 176 kts 178°
2026-04-26 16:34 51.37125 11.45370 7279 ft 176 kts 178°
2026-04-26 16:34 51.35900 11.45491 7278 ft 176 kts 178°
2026-04-26 16:34 51.34691 11.45610 7280 ft 177 kts 178°
2026-04-26 16:34 51.33461 11.45731 7279 ft 177 kts 178°
2026-04-26 16:35 51.32231 11.45850 7280 ft 177 kts 178°
2026-04-26 16:35 51.31001 11.45970 7279 ft 176 kts 178°
2026-04-26 16:35 51.29777 11.46090 7280 ft 176 kts 178°
2026-04-26 16:35 51.28550 11.46209 7279 ft 176 kts 178°
2026-04-26 16:36 51.27324 11.46327 7280 ft 177 kts 178°
2026-04-26 16:36 51.26095 11.46445 7279 ft 177 kts 178°
2026-04-26 16:36 51.24860 11.46564 7279 ft 177 kts 178°
2026-04-26 16:36 51.23634 11.46683 7279 ft 176 kts 179°
2026-04-26 16:37 51.22409 11.46801 7278 ft 176 kts 179°
2026-04-26 16:37 51.21202 11.46916 7278 ft 175 kts 179°
2026-04-26 16:37 51.19983 11.47034 7279 ft 175 kts 179°
2026-04-26 16:37 51.19157 11.47113 7278 ft 175 kts 179°
2026-04-26 16:38 51.17540 11.47268 7284 ft 176 kts 178°
2026-04-26 16:38 51.16320 11.47386 7283 ft 175 kts 179°
2026-04-26 16:38 51.15098 11.47503 7284 ft 176 kts 179°
2026-04-26 16:38 51.13874 11.47621 7283 ft 176 kts 179°
2026-04-26 16:39 51.12664 11.47736 7284 ft 176 kts 178°
2026-04-26 16:39 51.11441 11.47852 7284 ft 176 kts 178°
2026-04-26 16:39 51.10220 11.47970 7285 ft 176 kts 178°
2026-04-26 16:39 51.08998 11.48088 7285 ft 176 kts 178°
2026-04-26 16:40 51.07770 11.48204 7285 ft 176 kts 178°
2026-04-26 16:40 51.06543 11.48322 7284 ft 176 kts 178°
2026-04-26 16:40 51.05319 11.48439 7282 ft 176 kts 178°
2026-04-26 16:40 51.04091 11.48557 7282 ft 176 kts 179°
2026-04-26 16:41 51.02865 11.48673 7281 ft 177 kts 179°
2026-04-26 16:41 51.01638 11.48791 7282 ft 176 kts 179°
2026-04-26 16:41 51.00424 11.48907 7278 ft 177 kts 179°
2026-04-26 16:41 50.99195 11.49025 7280 ft 177 kts 179°
2026-04-26 16:42 50.97959 11.49142 7280 ft 179 kts 179°
2026-04-26 16:42 50.96720 11.49260 7279 ft 178 kts 179°
2026-04-26 16:42 50.95481 11.49378 7277 ft 178 kts 178°
2026-04-26 16:42 50.94246 11.49496 7275 ft 177 kts 178°
2026-04-26 16:43 50.93016 11.49613 7279 ft 177 kts 178°
2026-04-26 16:43 50.91784 11.49731 7279 ft 177 kts 179°
2026-04-26 16:43 50.90555 11.49848 7276 ft 176 kts 178°
2026-04-26 16:43 50.89334 11.49964 7277 ft 175 kts 179°
2026-04-26 16:44 50.88130 11.50078 7275 ft 176 kts 179°
2026-04-26 16:44 50.86905 11.50195 7274 ft 176 kts 179°
2026-04-26 16:44 50.85684 11.50311 7273 ft 176 kts 179°
2026-04-26 16:44 50.84455 11.50427 7272 ft 176 kts 178°
2026-04-26 16:45 50.83227 11.50544 7272 ft 176 kts 179°
2026-04-26 16:45 50.82004 11.50659 7272 ft 176 kts 178°
2026-04-26 16:45 50.80798 11.50774 7272 ft 176 kts 179°
2026-04-26 16:45 50.79576 11.50890 7270 ft 176 kts 179°
2026-04-26 16:46 50.78355 11.51005 7275 ft 176 kts 179°
2026-04-26 16:46 50.77131 11.51121 7275 ft 176 kts 179°
2026-04-26 16:46 50.75910 11.51236 7267 ft 175 kts 178°
2026-04-26 16:46 50.74688 11.51352 7269 ft 176 kts 178°
2026-04-26 16:47 50.73460 11.51468 7266 ft 177 kts 178°
2026-04-26 16:47 50.72232 11.51583 7266 ft 177 kts 178°
2026-04-26 16:47 50.71004 11.51700 7265 ft 177 kts 179°
2026-04-26 16:47 50.69774 11.51816 7266 ft 176 kts 179°
2026-04-26 16:48 50.68547 11.51932 7268 ft 176 kts 179°
2026-04-26 16:48 50.67322 11.52046 7268 ft 177 kts 179°
2026-04-26 16:48 50.66090 11.52163 7269 ft 178 kts 179°
2026-04-26 16:48 50.64866 11.52277 7269 ft 178 kts 179°
2026-04-26 16:49 50.63628 11.52396 7269 ft 178 kts 179°
2026-04-26 16:49 50.62388 11.52509 7269 ft 178 kts 179°
2026-04-26 16:49 50.61153 11.52627 7269 ft 177 kts 178°
2026-04-26 16:49 50.59921 11.52744 7270 ft 177 kts 179°
2026-04-26 16:50 50.58685 11.52858 7269 ft 178 kts 179°
2026-04-26 16:50 50.57449 11.52975 7267 ft 177 kts 178°
2026-04-26 16:50 50.56233 11.53088 7268 ft 178 kts 178°
2026-04-26 16:50 50.54997 11.53307 7266 ft 179 kts 173°
2026-04-26 16:51 50.53766 11.53564 7265 ft 178 kts 174°
2026-04-26 16:51 50.52540 11.53809 7265 ft 178 kts 174°
2026-04-26 16:51 50.51310 11.54060 7265 ft 178 kts 175°
2026-04-26 16:51 50.50083 11.54313 7262 ft 177 kts 175°
2026-04-26 16:52 50.48856 11.54565 7262 ft 178 kts 175°
2026-04-26 16:52 50.48038 11.54735 7260 ft 178 kts 175°
2026-04-26 16:52 50.46386 11.55073 7262 ft 179 kts 175°
2026-04-26 16:52 50.45161 11.55325 7263 ft 180 kts 175°
2026-04-26 16:53 50.43916 11.55581 7263 ft 180 kts 175°
2026-04-26 16:53 50.42674 11.55837 7262 ft 180 kts 175°
2026-04-26 16:53 50.41434 11.56090 7262 ft 179 kts 174°
2026-04-26 16:53 50.40196 11.56344 7262 ft 179 kts 174°
2026-04-26 16:54 50.38964 11.56597 7260 ft 178 kts 174°
2026-04-26 16:54 50.37736 11.56849 7261 ft 178 kts 174°
2026-04-26 16:54 50.36508 11.57100 7260 ft 178 kts 174°
2026-04-26 16:54 50.35281 11.57351 7263 ft 178 kts 174°
2026-04-26 16:55 50.34051 11.57603 7260 ft 179 kts 174°
2026-04-26 16:55 50.32833 11.57852 7263 ft 179 kts 175°
2026-04-26 16:55 50.31595 11.58105 7260 ft 179 kts 175°
2026-04-26 16:55 50.30358 11.58358 7259 ft 179 kts 174°
2026-04-26 16:56 50.27900 11.58858 7261 ft 178 kts 174°
2026-04-26 16:56 50.26665 11.59111 7261 ft 179 kts 174°
2026-04-26 16:56 50.25440 11.59360 7263 ft 180 kts 174°
2026-04-26 16:57 50.24194 11.59614 7260 ft 180 kts 174°
2026-04-26 16:57 50.22951 11.59866 7263 ft 180 kts 174°
2026-04-26 16:57 50.20460 11.60374 7258 ft 180 kts 174°
2026-04-26 16:58 50.19214 11.60627 7260 ft 181 kts 174°
2026-04-26 16:58 50.18791 11.60713 7262 ft 181 kts 174°
2026-04-26 16:58 50.15472 11.61387 7257 ft 180 kts 174°
2026-04-26 16:59 50.14244 11.61636 7257 ft 180 kts 174°
2026-04-26 16:59 50.11757 11.62141 7258 ft 180 kts 174°
2026-04-26 17:00 50.09257 11.62646 7250 ft 181 kts 175°
2026-04-26 17:00 50.06760 11.63005 7250 ft 178 kts 187°
2026-04-26 17:00 50.05526 11.62847 7250 ft 177 kts 187°
2026-04-26 17:01 50.04294 11.62701 7251 ft 177 kts 186°
2026-04-26 17:01 50.03088 11.62564 7251 ft 175 kts 186°
2026-04-26 17:01 50.01868 11.62426 7244 ft 175 kts 187°
2026-04-26 17:01 50.00659 11.62287 7243 ft 174 kts 186°
2026-04-26 17:02 49.99451 11.62149 7245 ft 174 kts 187°
2026-04-26 17:02 49.98241 11.62010 7244 ft 174 kts 187°
2026-04-26 17:02 49.97031 11.61871 7244 ft 174 kts 187°
2026-04-26 17:02 49.95839 11.61703 7241 ft 174 kts 193°
2026-04-26 17:03 49.94723 11.61033 7234 ft 172 kts 207°
2026-04-26 17:03 49.93631 11.60272 7237 ft 172 kts 206°
2026-04-26 17:03 49.92537 11.59519 7234 ft 172 kts 206°
2026-04-26 17:03 49.91441 11.58765 7230 ft 172 kts 206°
2026-04-26 17:04 49.90351 11.58011 7235 ft 172 kts 206°
2026-04-26 17:04 49.89255 11.57256 7232 ft 172 kts 207°
2026-04-26 17:04 49.88533 11.56758 7232 ft 171 kts 207°
2026-04-26 17:04 49.87445 11.56008 7234 ft 171 kts 206°
2026-04-26 17:05 49.86355 11.55255 7231 ft 171 kts 206°
2026-04-26 17:05 49.85268 11.54509 7230 ft 171 kts 207°
2026-04-26 17:05 49.84184 11.53758 7222 ft 170 kts 207°
2026-04-26 17:05 49.82749 11.52753 7227 ft 172 kts 207°
2026-04-26 17:06 49.82022 11.52246 7227 ft 173 kts 207°
2026-04-26 17:06 49.80927 11.51483 7225 ft 172 kts 207°
2026-04-26 17:06 49.79836 11.50723 7227 ft 171 kts 207°
2026-04-26 17:06 49.78752 11.49969 7227 ft 171 kts 207°
2026-04-26 17:07 49.77665 11.49211 7224 ft 171 kts 207°
2026-04-26 17:07 49.76576 11.48454 7225 ft 171 kts 206°
2026-04-26 17:07 49.75489 11.47699 7221 ft 171 kts 207°
2026-04-26 17:07 49.74420 11.46956 7221 ft 171 kts 206°
2026-04-26 17:08 49.73340 11.46206 7221 ft 170 kts 206°
2026-04-26 17:08 49.72262 11.45457 7223 ft 170 kts 207°
2026-04-26 17:08 49.71182 11.44709 7224 ft 170 kts 207°
2026-04-26 17:08 49.70100 11.43957 7223 ft 171 kts 207°
2026-04-26 17:09 49.69015 11.43205 7227 ft 171 kts 207°
2026-04-26 17:09 49.68298 11.42707 7227 ft 171 kts 207°
2026-04-26 17:09 49.66866 11.41650 7217 ft 169 kts 217°
2026-04-26 17:09 49.66053 11.40379 7224 ft 166 kts 234°
2026-04-26 17:10 49.65334 11.39006 7225 ft 167 kts 233°
2026-04-26 17:10 49.64597 11.37613 7224 ft 167 kts 233°
2026-04-26 17:10 49.63859 11.36222 7227 ft 168 kts 233°
2026-04-26 17:10 49.63117 11.34823 7224 ft 168 kts 234°
2026-04-26 17:11 49.62381 11.33434 7225 ft 167 kts 233°
2026-04-26 17:11 49.61644 11.32043 7224 ft 167 kts 234°
2026-04-26 17:11 49.60908 11.30657 7224 ft 166 kts 233°
2026-04-26 17:11 49.60184 11.29293 7218 ft 166 kts 233°
2026-04-26 17:12 49.58727 11.26551 7222 ft 166 kts 233°
2026-04-26 17:12 49.57997 11.25176 7223 ft 166 kts 233°
2026-04-26 17:13 49.56531 11.22421 7230 ft 165 kts 233°
2026-04-26 17:13 49.55811 11.21130 6904 ft 151 kts 224°
2026-04-26 17:13 49.54044 11.19544 5143 ft 143 kts 210°
2026-04-26 17:14 49.53166 11.18809 4252 ft 144 kts 209°
2026-04-26 17:14 49.51523 11.17132 2646 ft 136 kts 222°
2026-04-26 17:14 49.50855 11.16234 2208 ft 118 kts 222°
2026-04-26 17:15 49.49807 11.14566 1543 ft 103 kts 240°
2026-04-26 17:15 49.49476 11.13565 1348 ft 98 kts 254°
2026-04-26 17:15 49.49378 11.12566 1282 ft 96 kts 275°
2026-04-26 17:16 49.49486 11.11566 1258 ft 95 kts 284°
2026-04-26 17:16 49.49592 11.10552 1170 ft 96 kts 279°
2026-04-26 17:16 49.49695 11.09568 1052 ft 89 kts 279°
2026-04-26 17:16 49.49761 11.08901 1029 ft 42 kts 277°
2026-04-26 17:17 49.49771 11.08572 1023 ft 16 kts 224°
2026-04-26 17:17 49.49689 11.08543 1026 ft 12 kts 213°
2026-04-26 17:17 49.49635 11.08435 1025 ft 13 kts 236°
2026-04-26 17:17 49.49579 11.08359 1027 ft 9 kts 181°
2026-04-26 17:18 49.49503 11.08355 1027 ft 16 kts 182°
2026-04-26 17:18 49.49435 11.08350 1026 ft 0 kts 182°